EW9362 Weather Reports


Display with metric or nautical units.
time (UTC)temp
F
wind
direction
speed
MPH
gust
MPH
rain 1hr
in
rain 24hr
in
rain mn
in
humidity
%
barometer
mb
20260904060528 82 165 1.0 3.0 0.00 0.00 0.00 77 1014.9
20260904055529 82 160 1.0 4.0 0.00 0.00 0.00 77 1014.9
20260904055030 82 182 1.0 2.0 0.00 0.00 0.00 77 1014.9
20260904054559 82 158 1.0 4.0 0.00 0.00 0.00 77 1015.0
20260904054032 82 191 1.0 4.0 0.00 0.00 0.00 77 1015.0
20260904053527 82 158 0.0 3.0 0.00 0.00 0.00 77 1015.1
20260904053100 82 160 0.0 3.0 0.00 0.00 0.00 76 1015.1
20260904052530 82 0 1.0 3.0 0.00 0.00 0.00 76 1015.3
20260904052028 82 0 1.0 3.0 0.00 0.00 0.00 76 1015.2
20260904051553 82 0 1.0 3.0 0.00 0.00 0.00 76 1015.3
20260904051030 82 158 1.0 5.0 0.00 0.00 0.00 76 1015.2
20260904050528 82 160 1.0 5.0 0.00 0.00 0.00 75 1015.2
20260904050112 83 182 2.0 5.0 0.00 0.00 0.00 75 1015.2
20260904045528 83 190 2.0 4.0 0.00 0.00 0.00 75 1015.3
20260904045030 83 172 1.0 3.0 0.00 0.00 0.00 75 1015.3
20260904044554 83 162 1.0 2.0 0.00 0.00 0.00 75 1015.2
20260904044030 83 0 0.0 2.0 0.00 0.00 0.00 75 1015.0
20260904043530 83 167 0.0 2.0 0.00 0.00 0.00 75 1015.3
20260904043101 82 169 0.0 2.0 0.00 0.00 0.00 76 1015.2
20260904042531 83 0 0.0 2.0 0.00 0.00 0.00 75 1015.2
20260904042030 83 0 0.0 2.0 0.00 0.00 0.00 74 1015.2
20260904041608 83 0 0.0 2.0 0.00 0.00 0.00 73 1015.2
20260904041030 83 160 0.0 2.0 0.00 0.00 0.00 73 1015.3
20260904040529 83 0 0.0 1.0 0.00 0.00 0.00 73 1015.2
20260904040053 83 0 0.0 1.0 0.00 0.00 0.00 73 1015.3
20260904035531 83 0 0.0 1.0 0.00 0.00 0.00 73 1015.4
20260904035028 83 156 0.0 0.0 0.00 0.00 0.00 73 1015.4
20260904034556 83 0 0.0 0.0 0.00 0.00 0.00 73 1015.3
20260904034030 83 0 0.0 0.0 0.00 0.00 0.00 74 1015.4
20260904033532 83 0 0.0 0.0 0.00 0.00 0.00 74 1015.4
20260904033053 84 0 0.0 0.0 0.00 0.00 0.00 73 1015.4
20260904032528 84 0 0.0 1.0 0.00 0.00 0.00 72 1015.5
20260904032028 84 0 0.0 1.0 0.00 0.00 0.00 72 1015.5
20260904031552 84 163 0.0 2.0 0.00 0.00 0.00 71 1015.5
20260904031028 84 0 0.0 2.0 0.00 0.00 0.00 71 1015.5
20260904030528 84 166 0.0 2.0 0.00 0.00 0.00 70 1015.4
20260904030053 84 162 0.0 2.0 0.00 0.00 0.00 70 1015.5
20260904025529 84 153 0.0 1.0 0.00 0.00 0.00 70 1015.5
20260904025032 84 0 0.0 1.0 0.00 0.00 0.00 71 1015.6
20260904024606 84 0 0.0 2.0 0.00 0.00 0.00 71 1015.6
20260904024029 84 0 0.0 2.0 0.00 0.00 0.00 71 1015.6
20260904023536 84 154 0.0 2.0 0.00 0.00 0.00 70 1015.5
20260904023047 83 163 0.0 1.0 0.00 0.00 0.00 71 1015.6
20260904022528 83 0 0.0 0.0 0.00 0.00 0.00 73 1015.6
20260904022031 83 0 0.0 0.0 0.00 0.00 0.00 72 1015.6
20260904021554 83 0 0.0 0.0 0.00 0.00 0.00 72 1015.5
20260904021028 83 0 0.0 0.0 0.00 0.00 0.00 71 1015.4
20260904020529 83 0 0.0 0.0 0.00 0.00 0.00 71 1015.5
20260904020053 83 0 0.0 0.0 0.00 0.00 0.00 71 1015.5
20260904015528 84 0 0.0 0.0 0.00 0.00 0.00 71 1015.4
20260904015031 84 0 0.0 0.0 0.00 0.00 0.00 70 1015.5
20260904014558 84 0 0.0 0.0 0.00 0.00 0.00 70 1015.4
20260904014028 84 0 0.0 0.0 0.00 0.00 0.00 70 1015.5
20260904013527 84 0 0.0 0.0 0.00 0.00 0.00 69 1015.4
20260904013052 84 0 0.0 0.0 0.00 0.00 0.00 68 1015.3
20260904012531 85 0 0.0 0.0 0.00 0.00 0.00 69 1015.3
20260904012028 85 0 0.0 0.0 0.00 0.00 0.00 69 1015.2
20260904011608 85 0 0.0 0.0 0.00 0.00 0.00 68 1015.2
20260904011028 86 0 0.0 0.0 0.00 0.00 0.00 67 1015.2
20260904010527 86 0 0.0 0.0 0.00 0.00 0.00 66 1015.0
20260904010056 86 0 0.0 0.0 0.00 0.00 0.00 66 1015.0
20260904005528 86 0 0.0 0.0 0.00 0.00 0.00 65 1015.0
20260904005028 86 0 0.0 0.0 0.00 0.00 0.00 66 1015.1
20260904004548 87 0 0.0 0.0 0.00 0.00 0.00 64 1014.9
20260904004028 87 0 0.0 0.0 0.00 0.00 0.00 64 1014.7
20260904003528 87 0 0.0 0.0 0.00 0.00 0.00 64 1014.7
20260904003047 87 0 0.0 0.0 0.00 0.00 0.00 63 1014.5
20260904002529 88 0 0.0 0.0 0.00 0.00 0.00 63 1014.5
20260904002028 88 0 0.0 0.0 0.00 0.00 0.00 62 1014.4
20260904001546 89 0 0.0 0.0 0.00 0.00 0.00 60 1014.3
20260904001030 90 0 0.0 0.0 0.00 0.00 0.00 58 1014.1
20260904000528 91 0 0.0 0.0 0.00 0.00 0.00 56 1014.1
20260904000059 91 0 0.0 0.0 0.00 0.00 0.00 56 1014.2
20260903235530 92 0 0.0 0.0 0.00 0.00 0.00 54 1014.3
20260903235033 92 0 0.0 0.0 0.00 0.00 0.00 54 1014.3
20260903234553 93 0 0.0 0.0 0.00 0.00 0.00 53 1014.3
20260903234028 94 0 0.0 0.0 0.00 0.00 0.00 52 1014.3
20260903233531 94 0 0.0 0.0 0.00 0.00 0.00 51 1014.2
20260903233046 94 0 0.0 0.0 0.00 0.00 0.00 51 1014.1
20260903232529 94 0 0.0 0.0 0.00 0.00 0.00 51 1014.1
20260903232028 95 0 0.0 0.0 0.00 0.00 0.00 50 1014.2
20260903231610 95 0 0.0 1.0 0.00 0.00 0.00 48 1014.2
20260903231028 96 0 0.0 1.0 0.00 0.00 0.00 48 1014.1
20260903230529 97 0 0.0 3.0 0.00 0.00 0.00 47 1014.2
20260903230112 96 0 0.0 3.0 0.00 0.00 0.00 47 1014.1
20260903225533 96 77 0.0 3.0 0.00 0.00 0.00 48 1014.1
20260903225031 97 0 0.0 2.0 0.00 0.00 0.00 46 1014.1
20260903224554 97 0 0.0 2.0 0.00 0.00 0.00 46 1014.2
20260903224034 98 0 0.0 2.0 0.00 0.00 0.00 46 1014.2
20260903223529 97 0 0.0 2.0 0.00 0.00 0.00 45 1014.2
20260903223106 98 0 0.0 4.0 0.00 0.00 0.00 46 1014.2
20260903222531 97 0 0.0 4.0 0.00 0.00 0.00 46 1014.1
20260903222033 97 30 0.0 4.0 0.00 0.00 0.00 47 1014.1
20260903221602 97 327 1.0 4.0 0.00 0.00 0.00 46 1014.0
20260903221031 97 149 0.0 6.0 0.00 0.00 0.00 45 1014.1
20260903220534 98 77 0.0 7.0 0.00 0.00 0.00 45 1014.1
20260903220108 97 195 3.0 7.0 0.00 0.00 0.00 45 1014.1
20260903215530 98 114 0.0 5.0 0.00 0.00 0.00 44 1014.1
20260903215028 97 0 0.0 8.0 0.00 0.00 0.00 48 1014.1
20260903214557 96 21 3.0 8.0 0.00 0.00 0.00 46 1014.2
20260903214031 97 328 1.0 7.0 0.00 0.00 0.00 45 1014.2
20260903213532 97 0 0.0 7.0 0.00 0.00 0.00 45 1014.2
20260903213051 97 2 3.0 7.0 0.00 0.00 0.00 46 1014.2
20260903212528 98 13 1.0 6.0 0.00 0.00 0.00 44 1014.3
20260903212034 97 72 2.0 6.0 0.00 0.00 0.00 45 1014.3
20260903211615 98 21 1.0 4.0 0.00 0.00 0.00 44 1014.3
20260903211031 99 126 0.0 5.0 0.00 0.00 0.00 46 1014.3
20260903210536 99 0 1.0 5.0 0.00 0.00 0.00 45 1014.3
20260903210059 98 327 2.0 5.0 0.00 0.00 0.00 44 1014.5
20260903205531 99 176 1.0 5.0 0.00 0.00 0.00 43 1014.5
20260903205028 99 0 0.0 5.0 0.00 0.00 0.00 43 1014.5
20260903204600 99 0 0.0 5.0 0.00 0.00 0.00 43 1014.5
20260903204031 99 0 0.0 6.0 0.00 0.00 0.00 44 1014.6
20260903203533 99 150 0.0 6.0 0.00 0.00 0.00 42 1014.6
20260903203052 99 0 0.0 3.0 0.00 0.00 0.00 44 1014.7
20260903202534 99 200 0.0 8.0 0.00 0.00 0.00 45 1014.6
20260903202032 98 102 0.0 8.0 0.00 0.00 0.00 45 1014.6
20260903201548 97 347 2.0 6.0 0.00 0.00 0.00 44 1014.6
20260903201032 99 0 0.0 4.0 0.00 0.00 0.00 44 1014.7
20260903200531 99 0 0.0 7.0 0.00 0.00 0.00 43 1014.9
20260903200107 99 110 0.0 8.0 0.00 0.00 0.00 44 1015.1
20260903195529 97 238 3.0 8.0 0.00 0.00 0.00 45 1015.2
20260903195027 98 327 1.0 5.0 0.00 0.00 0.00 45 1015.2
20260903194556 99 188 0.0 7.0 0.00 0.00 0.00 45 1015.4
20260903194028 98 182 1.0 7.0 0.00 0.00 0.00 44 1015.4
20260903193531 98 316 2.0 6.0 0.00 0.00 0.00 45 1015.4
20260903193102 98 0 1.0 5.0 0.00 0.00 0.00 44 1015.5
20260903192530 98 0 0.0 5.0 0.00 0.00 0.00 46 1015.6
20260903192029 98 0 1.0 5.0 0.00 0.00 0.00 46 1015.6
20260903191559 98 360 0.0 4.0 0.00 0.00 0.00 46 1015.6
20260903191027 98 128 0.0 7.0 0.00 0.00 0.00 47 1015.7
20260903190532 96 235 2.0 7.0 0.00 0.00 0.00 49 1015.6
20260903190047 96 213 2.0 7.0 0.00 0.00 0.00 51 1015.6
20260903185529 95 58 1.0 3.0 0.00 0.00 0.00 49 1015.7
20260903185029 94 17 0.0 3.0 0.00 0.00 0.00 50 1015.7
20260903184556 94 345 0.0 5.0 0.00 0.00 0.00 49 1015.8
20260903184029 94 1 2.0 5.0 0.00 0.00 0.00 51 1015.9
20260903183527 95 255 1.0 8.0 0.00 0.00 0.00 51 1016.0
20260903183114 95 358 2.0 8.0 0.00 0.00 0.00 49 1015.9
20260903182529 95 350 4.0 8.0 0.00 0.00 0.00 50 1016.0
20260903182027 96 0 0.0 5.0 0.00 0.00 0.00 49 1016.1
20260903181552 95 296 2.0 5.0 0.00 0.00 0.00 50 1016.0
20260903181030 96 0 0.0 6.0 0.00 0.00 0.00 48 1016.1
20260903180528 96 312 0.0 6.0 0.00 0.00 0.00 48 1016.1
20260903180058 97 238 0.0 3.0 0.00 0.00 0.00 49 1016.3
20260903175527 96 0 0.0 7.0 0.00 0.00 0.00 50 1016.3
20260903175029 96 0 0.0 9.0 0.00 0.00 0.00 50 1016.4
20260903174559 94 0 2.0 9.0 0.00 0.00 0.00 50 1016.4
20260903174028 95 326 1.0 5.0 0.00 0.00 0.00 50 1016.5
20260903173529 95 154 1.0 10.0 0.00 0.00 0.00 53 1016.4
20260903173101 94 330 3.0 10.0 0.00 0.00 0.00 51 1016.4
20260903172529 94 28 3.0 7.0 0.00 0.00 0.00 51 1016.4
20260903172030 95 29 0.0 3.0 0.00 0.00 0.00 51 1016.5
20260903171553 95 340 0.0 5.0 0.00 0.00 0.00 49 1016.6
20260903171029 94 0 1.0 5.0 0.00 0.00 0.00 51 1016.5
20260903170529 95 41 1.0 5.0 0.00 0.00 0.00 49 1016.7
20260903170057 94 0 2.0 6.0 0.00 0.00 0.00 52 1016.5
20260903165534 94 330 2.0 6.0 0.00 0.00 0.00 51 1016.6
20260903165028 95 349 0.0 3.0 0.00 0.00 0.00 50 1016.7
20260903164558 94 146 1.0 7.0 0.00 0.00 0.00 50 1016.8
20260903164030 94 328 2.0 7.0 0.00 0.00 0.00 52 1016.8
20260903163530 95 0 0.0 4.0 0.00 0.00 0.00 54 1016.9
20260903163102 94 186 1.0 8.0 0.00 0.00 0.00 51 1017.0
20260903162530 93 186 1.0 8.0 0.00 0.00 0.00 54 1016.9
20260903162028 92 8 4.0 8.0 0.00 0.00 0.00 55 1017.0
20260903161615 92 72 2.0 6.0 0.00 0.00 0.00 55 1017.0
20260903161027 92 340 3.0 6.0 0.00 0.00 0.00 54 1017.0
20260903160530 92 335 2.0 6.0 0.00 0.00 0.00 56 1017.1
20260903160106 93 345 1.0 4.0 0.00 0.00 0.00 54 1017.1
20260903155535 93 0 0.0 5.0 0.00 0.00 0.00 56 1017.1
20260903155030 92 47 3.0 5.0 0.00 0.00 0.00 56 1017.1
20260903154550 93 1 1.0 4.0 0.00 0.00 0.00 56 1017.1
20260903154030 93 105 0.0 3.0 0.00 0.00 0.00 56 1017.0
20260903153529 93 83 0.0 3.0 0.00 0.00 0.00 55 1017.0
20260903153047 92 0 0.0 5.0 0.00 0.00 0.00 56 1017.0
20260903152529 91 37 1.0 6.0 0.00 0.00 0.00 58 1017.1
20260903152032 91 0 3.0 6.0 0.00 0.00 0.00 58 1017.0
20260903151602 91 56 0.0 3.0 0.00 0.00 0.00 57 1017.1
20260903151031 91 7 0.0 5.0 0.00 0.00 0.00 59 1017.1
20260903150531 90 288 1.0 5.0 0.00 0.00 0.00 60 1017.1
20260903150054 90 47 2.0 4.0 0.00 0.00 0.00 60 1017.1
20260903145531 89 12 1.0 5.0 0.00 0.00 0.00 60 1017.1
20260903145028 89 338 1.0 5.0 0.00 0.00 0.00 61 1017.2
20260903144548 89 359 1.0 3.0 0.00 0.00 0.00 61 1017.2
20260903144032 89 0 0.0 3.0 0.00 0.00 0.00 63 1017.1
20260903143532 89 54 0.0 2.0 0.00 0.00 0.00 64 1017.1
20260903143056 89 0 0.0 1.0 0.00 0.00 0.00 63 1017.1
20260903142534 90 0 0.0 0.0 0.00 0.00 0.00 62 1017.1
20260903142030 89 0 0.0 2.0 0.00 0.00 0.00 64 1017.2
20260903141557 89 0 0.0 2.0 0.00 0.00 0.00 66 1017.1
20260903141028 88 142 0.0 2.0 0.00 0.00 0.00 66 1017.0
20260903140528 88 0 0.0 0.0 0.00 0.00 0.00 68 1017.1
20260903140054 88 0 0.0 1.0 0.00 0.00 0.00 68 1017.2
20260903135528 88 0 0.0 1.0 0.00 0.00 0.00 68 1017.1
20260903135030 87 0 0.0 0.0 0.00 0.00 0.00 70 1017.2
20260903134608 86 0 0.0 0.0 0.00 0.00 0.00 71 1017.2
20260903134030 86 0 0.0 2.0 0.00 0.00 0.00 71 1017.3
20260903133531 85 170 0.0 2.0 0.00 0.00 0.00 71 1017.3
20260903133100 85 184 0.0 2.0 0.00 0.00 0.00 72 1017.5
20260903132532 85 0 0.0 2.0 0.00 0.00 0.00 72 1017.4
20260903132028 84 0 0.0 1.0 0.00 0.00 0.00 73 1017.5
20260903131559 84 165 0.0 0.0 0.00 0.00 0.00 74 1017.5
20260903131029 84 0 0.0 0.0 0.00 0.00 0.00 74 1017.5
20260903130532 83 0 0.0 0.0 0.00 0.00 0.00 74 1017.6
20260903130051 83 0 0.0 0.0 0.00 0.00 0.00 76 1017.7
20260903125528 82 0 0.0 3.0 0.00 0.00 0.00 78 1017.7
20260903125028 81 0 0.0 3.0 0.00 0.00 0.00 78 1017.7
20260903124600 80 199 1.0 2.0 0.00 0.00 0.00 79 1017.7
20260903124032 80 0 0.0 2.0 0.00 0.00 0.00 81 1017.8
20260903123531 79 178 0.0 1.0 0.00 0.00 0.00 83 1017.8
20260903123055 78 0 0.0 0.0 0.00 0.00 0.00 84 1017.7
20260903122530 78 165 0.0 1.0 0.00 0.00 0.00 84 1017.6
20260903122030 77 160 0.0 1.0 0.00 0.00 0.00 85 1017.7
20260903121600 77 174 0.0 1.0 0.00 0.00 0.00 86 1017.6
20260903121033 76 0 0.0 0.0 0.00 0.00 0.00 87 1017.6
20260903120528 76 0 0.0 1.0 0.00 0.00 0.00 87 1017.5
20260903120055 76 0 0.0 1.0 0.00 0.00 0.00 88 1017.5
20260903115528 76 0 0.0 1.0 0.00 0.00 0.00 88 1017.6
20260903115031 75 0 0.0 1.0 0.00 0.00 0.00 88 1017.5
20260903114601 75 0 0.0 0.0 0.00 0.00 0.00 88 1017.6
20260903114028 75 0 0.0 0.0 0.00 0.00 0.00 89 1017.5
20260903113530 75 0 0.0 0.0 0.00 0.00 0.00 89 1017.5
20260903113058 74 0 0.0 0.0 0.00 0.00 0.00 90 1017.5
20260903112531 75 0 0.0 0.0 0.00 0.00 0.00 89 1017.4
20260903112031 74 0 0.0 0.0 0.00 0.00 0.00 90 1017.4
20260903111557 74 0 0.0 0.0 0.00 0.00 0.00 90 1017.4
20260903111030 74 0 0.0 0.0 0.00 0.00 0.00 90 1017.3
20260903110529 74 0 0.0 0.0 0.00 0.00 0.00 89 1017.3
20260903110054 75 0 0.0 0.0 0.00 0.00 0.00 89 1017.2
20260903105532 75 0 0.0 0.0 0.00 0.00 0.00 89 1017.1
20260903105031 75 0 0.0 0.0 0.00 0.00 0.00 89 1017.0
20260903104549 75 0 0.0 0.0 0.00 0.00 0.00 89 1017.0
20260903104032 74 0 0.0 0.0 0.00 0.00 0.00 89 1016.9
20260903103528 75 0 0.0 0.0 0.00 0.00 0.00 89 1016.9
20260903103047 75 0 0.0 0.0 0.00 0.00 0.00 89 1016.9
20260903102529 75 0 0.0 0.0 0.00 0.00 0.00 89 1016.8
20260903102032 75 0 0.0 0.0 0.00 0.00 0.00 89 1016.9
20260903101557 75 0 0.0 0.0 0.00 0.00 0.00 89 1017.0
20260903101028 75 0 0.0 0.0 0.00 0.00 0.00 89 1017.0
20260903100529 75 0 0.0 0.0 0.00 0.00 0.00 89 1017.0
20260903100056 75 0 0.0 0.0 0.00 0.00 0.00 89 1017.0
20260903095534 75 0 0.0 0.0 0.00 0.00 0.00 89 1017.0
20260903095031 75 0 0.0 0.0 0.00 0.00 0.00 88 1017.0
20260903094555 75 0 0.0 0.0 0.00 0.00 0.00 88 1017.0
20260903094033 75 0 0.0 0.0 0.00 0.00 0.00 88 1017.0
20260903093532 76 0 0.0 0.0 0.00 0.00 0.00 87 1017.0
20260903093057 76 0 0.0 0.0 0.00 0.00 0.00 88 1016.9
20260903092529 76 0 0.0 0.0 0.00 0.00 0.00 88 1016.9
20260903092028 76 0 0.0 0.0 0.00 0.00 0.00 87 1016.8
20260903091557 76 0 0.0 0.0 0.00 0.00 0.00 87 1016.9
20260903091031 76 0 0.0 0.0 0.00 0.00 0.00 87 1016.8
20260903090531 76 0 0.0 0.0 0.00 0.00 0.00 86 1016.8
20260903090048 77 0 0.0 1.0 0.00 0.00 0.00 85 1016.7
20260903085529 77 0 0.0 1.0 0.00 0.00 0.00 85 1016.7
20260903085029 77 0 0.0 0.0 0.00 0.00 0.00 85 1016.7
20260903084548 77 0 0.0 1.0 0.00 0.00 0.00 85 1016.6
20260903084031 77 0 0.0 1.0 0.00 0.00 0.00 85 1016.6
20260903083530 77 0 0.0 0.0 0.00 0.00 0.00 85 1016.6
20260903083046 77 176 0.0 0.0 0.00 0.00 0.00 85 1016.6
20260903082528 77 0 0.0 2.0 0.00 0.00 0.00 86 1016.5
20260903082028 76 0 0.0 2.0 0.00 0.00 0.00 86 1016.6
20260903081552 76 184 0.0 1.0 0.00 0.00 0.00 87 1016.5
20260903081029 76 0 0.0 0.0 0.00 0.00 0.00 88 1016.4
20260903080528 76 0 0.0 0.0 0.00 0.00 0.00 88 1016.4
20260903080053 76 0 0.0 0.0 0.00 0.00 0.00 87 1016.4
20260903075527 76 0 0.0 0.0 0.00 0.00 0.00 87 1016.5
20260903075034 76 0 0.0 0.0 0.00 0.00 0.00 88 1016.4
20260903074559 76 0 0.0 0.0 0.00 0.00 0.00 87 1016.5
20260903074028 76 0 0.0 0.0 0.00 0.00 0.00 87 1016.5
20260903073531 76 0 0.0 0.0 0.00 0.00 0.00 87 1016.5
20260903073113 76 0 0.0 0.0 0.00 0.00 0.00 87 1016.5
20260903072528 77 0 0.0 0.0 0.00 0.00 0.00 87 1016.4
20260903072028 77 0 0.0 0.0 0.00 0.00 0.00 86 1016.4
20260903071556 77 0 0.0 0.0 0.00 0.00 0.00 86 1016.3
20260903071028 77 0 0.0 0.0 0.00 0.00 0.00 85 1016.3
20260903070531 78 0 0.0 0.0 0.00 0.00 0.00 84 1016.2
20260903070052 78 0 0.0 0.0 0.00 0.00 0.00 83 1016.3
20260903065532 79 0 0.0 0.0 0.00 0.00 0.00 82 1016.3
20260903065027 79 0 0.0 2.0 0.00 0.00 0.00 82 1016.2
20260903064602 79 0 0.0 2.0 0.00 0.00 0.00 80 1016.3
20260903064031 80 0 0.0 2.0 0.00 0.00 0.00 80 1016.2
20260903063531 80 179 0.0 3.0 0.00 0.00 0.00 79 1016.2
20260903063119 80 0 0.0 3.0 0.00 0.00 0.00 80 1016.2
20260903062530 80 221 0.0 3.0 0.00 0.00 0.00 79 1016.1
20260903062028 80 0 0.0 0.0 0.00 0.00 0.00 80 1016.2
20260903061555 80 158 0.0 0.0 0.00 0.00 0.00 80 1016.2
20260903061029 80 0 0.0 1.0 0.00 0.00 0.00 79 1016.3